| time (UTC) | temp F | wind direction | speed knots | gust knots | rain 1hr in | rain 24hr in | rain mn in | humidity % | barometer mb |
| 20260510072500 | 52 | 139 | 0.0 | 1.7 | 0.00 | 0.00 | 0.14 | 98 | 1010.3 |
| 20260510072001 | 52 | 130 | 0.0 | 1.7 | 0.00 | 0.00 | 0.14 | 98 | 1010.3 |
| 20260510071500 | 52 | 67 | 0.0 | 1.7 | 0.00 | 0.00 | 0.14 | 98 | 1010.5 |
| 20260510071001 | 52 | 210 | 0.0 | 1.7 | 0.00 | 0.00 | 0.14 | 98 | 1010.5 |
| 20260510070500 | 52 | 156 | 0.9 | 1.7 | 0.00 | 0.00 | 0.14 | 98 | 1010.6 |
| 20260510070000 | 52 | 116 | 0.0 | 1.7 | 0.00 | 0.00 | 0.14 | 98 | 1010.5 |
| 20260510065501 | 52 | 225 | 1.7 | 2.6 | 0.00 | 0.00 | 0.14 | 98 | 1010.7 |
| 20260510065000 | 52 | 149 | 1.7 | 2.6 | 0.00 | 0.00 | 0.14 | 98 | 1010.9 |
| 20260510064511 | 52 | 135 | 0.0 | 2.6 | 0.00 | 0.00 | 0.14 | 98 | 1010.8 |
| 20260510064000 | 52 | 174 | 1.7 | 1.7 | 0.00 | 0.00 | 0.14 | 98 | 1010.9 |
| 20260510063501 | 52 | 216 | 0.0 | 1.7 | 0.00 | 0.00 | 0.14 | 98 | 1010.9 |
| 20260510063000 | 52 | 144 | 2.6 | 2.6 | 0.00 | 0.00 | 0.14 | 98 | 1010.6 |
| 20260510062506 | 52 | 144 | 1.7 | 1.7 | 0.00 | 0.00 | 0.14 | 98 | 1010.8 |
| 20260510062000 | 52 | 321 | 0.0 | 0.9 | 0.00 | 0.00 | 0.14 | 98 | 1010.8 |
| 20260510061501 | 52 | 356 | 0.0 | 1.7 | 0.00 | 0.00 | 0.14 | 98 | 1010.8 |
| 20260510061000 | 52 | 296 | 0.0 | 0.9 | 0.00 | 0.00 | 0.14 | 98 | 1010.9 |
| 20260510060501 | 52 | 32 | 0.0 | 0.9 | 0.00 | 0.00 | 0.14 | 98 | 1011.2 |
| 20260510060006 | 53 | 20 | 0.0 | 1.7 | 0.00 | 0.00 | 0.14 | 97 | 1011.0 |
| 20260510055506 | 53 | 38 | 0.9 | 1.7 | 0.00 | 0.00 | 0.14 | 98 | 1011.0 |
| 20260510055000 | 53 | 146 | 0.0 | 1.7 | 0.00 | 0.00 | 0.14 | 97 | 1011.2 |
| 20260510054501 | 53 | 8 | 5.2 | 5.2 | 0.00 | 0.00 | 0.14 | 98 | 1011.2 |
| 20260510054001 | 53 | 66 | 0.0 | 1.7 | 0.00 | 0.00 | 0.14 | 98 | 1011.0 |
| 20260510053506 | 53 | 244 | 2.6 | 4.3 | 0.00 | 0.00 | 0.14 | 97 | 1010.9 |
| 20260510053005 | 53 | 153 | 3.5 | 4.3 | 0.00 | 0.00 | 0.13 | 97 | 1010.7 |
| 20260510052506 | 53 | 134 | 1.7 | 1.7 | 0.00 | 0.00 | 0.13 | 97 | 1011.4 |
| 20260510052000 | 53 | 254 | 0.0 | 0.0 | 0.00 | 0.00 | 0.11 | 97 | 1011.9 |
| 20260510051501 | 53 | 355 | 0.9 | 1.7 | 0.00 | 0.00 | 0.09 | 97 | 1011.8 |
| 20260510051000 | 53 | 36 | 0.0 | 2.6 | 0.00 | 0.00 | 0.08 | 97 | 1011.9 |
| 20260510050501 | 53 | 89 | 0.0 | 0.9 | 0.00 | 0.00 | 0.07 | 97 | 1011.8 |
| 20260510050000 | 53 | 65 | 0.0 | 1.7 | 0.00 | 0.00 | 0.07 | 97 | 1011.7 |
| 20260510045501 | 53 | 284 | 0.0 | 0.9 | 0.00 | 0.00 | 0.07 | 97 | 1011.8 |
| 20260510045011 | 53 | 4 | 1.7 | 3.5 | 0.00 | 0.00 | 0.06 | 97 | 1011.5 |
| 20260510044501 | 53 | 21 | 1.7 | 2.6 | 0.00 | 0.00 | 0.04 | 97 | 1011.5 |
| 20260510044001 | 53 | 331 | 0.9 | 1.7 | 0.00 | 0.00 | 0.03 | 97 | 1011.6 |
| 20260510043500 | 53 | 346 | 0.9 | 1.7 | 0.00 | 0.00 | 0.02 | 97 | 1011.3 |
| 20260510043000 | 53 | 346 | 0.0 | 0.9 | 0.00 | 0.00 | 0.02 | 97 | 1011.3 |
| 20260510042501 | 53 | 233 | 0.0 | 1.7 | 0.00 | 0.00 | 0.01 | 97 | 1011.1 |
| 20260510042006 | 53 | 208 | 0.0 | 1.7 | 0.00 | 0.00 | 0.00 | 97 | 1011.0 |
| 20260510041500 | 53 | 89 | 0.0 | 1.7 | 0.00 | 0.00 | 0.00 | 97 | 1010.8 |
| 20260510041011 | 53 | 148 | 2.6 | 3.5 | 0.00 | 0.00 | 0.00 | 97 | 1010.7 |
| 20260510040500 | 53 | 97 | 0.9 | 1.7 | 0.00 | 0.00 | 0.00 | 97 | 1010.5 |
| 20260510040001 | 53 | 80 | 0.0 | 1.7 | 0.00 | 0.00 | 0.53 | 97 | 1010.4 |
| 20260510035501 | 52 | 41 | 0.0 | 1.7 | 0.00 | 0.00 | 0.53 | 97 | 1010.5 |
| 20260510035001 | 53 | 64 | 0.0 | 0.9 | 0.00 | 0.00 | 0.53 | 97 | 1010.6 |
| 20260510034501 | 53 | 45 | 1.7 | 3.5 | 0.00 | 0.00 | 0.53 | 97 | 1010.5 |
| 20260510034001 | 53 | 15 | 1.7 | 3.5 | 0.00 | 0.00 | 0.53 | 96 | 1010.9 |
| 20260510033500 | 53 | 0 | 1.7 | 2.6 | 0.00 | 0.00 | 0.53 | 96 | 1010.8 |
| 20260510033001 | 53 | 32 | 0.9 | 1.7 | 0.00 | 0.00 | 0.53 | 96 | 1010.7 |
| 20260510032501 | 53 | 67 | 0.9 | 1.7 | 0.00 | 0.00 | 0.53 | 96 | 1010.5 |
| 20260510032000 | 53 | 110 | 0.9 | 2.6 | 0.00 | 0.00 | 0.53 | 96 | 1010.6 |
| 20260510031506 | 53 | 150 | 0.9 | 1.7 | 0.00 | 0.00 | 0.53 | 96 | 1010.7 |
| 20260510031000 | 53 | 142 | 0.9 | 1.7 | 0.00 | 0.00 | 0.53 | 96 | 1010.6 |
| 20260510030501 | 53 | 14 | 0.0 | 1.7 | 0.00 | 0.00 | 0.53 | 96 | 1010.6 |
| 20260510030005 | 53 | 135 | 0.9 | 1.7 | 0.00 | 0.00 | 0.53 | 96 | 1010.7 |
| 20260510025501 | 53 | 0 | 0.0 | 1.7 | 0.00 | 0.00 | 0.53 | 96 | 1010.8 |
| 20260510025001 | 53 | 343 | 0.9 | 2.6 | 0.00 | 0.00 | 0.53 | 96 | 1011.1 |
| 20260510024501 | 53 | 100 | 0.9 | 2.6 | 0.00 | 0.00 | 0.53 | 95 | 1011.0 |
| 20260510024001 | 53 | 127 | 2.6 | 2.6 | 0.00 | 0.00 | 0.51 | 95 | 1011.5 |
| 20260510023500 | 53 | 120 | 0.0 | 0.9 | 0.00 | 0.00 | 0.49 | 95 | 1011.7 |
| 20260510023001 | 53 | 57 | 0.0 | 1.7 | 0.00 | 0.00 | 0.46 | 95 | 1011.7 |
| 20260510022500 | 53 | 40 | 1.7 | 1.7 | 0.00 | 0.00 | 0.44 | 95 | 1011.8 |
| 20260510022001 | 53 | 51 | 0.9 | 1.7 | 0.00 | 0.00 | 0.42 | 94 | 1011.9 |
| 20260510021500 | 53 | 285 | 0.0 | 2.6 | 0.00 | 0.00 | 0.41 | 94 | 1011.8 |
| 20260510021001 | 53 | 27 | 1.7 | 4.3 | 0.00 | 0.00 | 0.40 | 94 | 1011.8 |
| 20260510020501 | 53 | 36 | 1.7 | 5.2 | 0.00 | 0.00 | 0.37 | 93 | 1011.8 |
| 20260510020001 | 53 | 17 | 4.3 | 5.2 | 0.00 | 0.00 | 0.35 | 93 | 1011.8 |
| 20260510015501 | 53 | 8 | 3.5 | 7.0 | 0.00 | 0.00 | 0.33 | 92 | 1011.6 |
| 20260510015000 | 54 | 4 | 7.0 | 7.0 | 0.00 | 0.00 | 0.31 | 91 | 1011.7 |
| 20260510014500 | 54 | 294 | 2.6 | 9.6 | 0.00 | 0.00 | 0.23 | 89 | 1011.3 |
| 20260510014001 | 56 | 355 | 11.3 | 16.5 | 0.00 | 0.00 | 0.13 | 81 | 1011.1 |
| 20260510013500 | 60 | 10 | 2.6 | 13.9 | 0.00 | 0.00 | 0.12 | 70 | 1010.7 |
| 20260510013006 | 62 | 346 | 3.5 | 4.3 | 0.00 | 0.00 | 0.12 | 62 | 1009.6 |
| 20260510012500 | 62 | 256 | 1.7 | 2.6 | 0.00 | 0.00 | 0.12 | 63 | 1009.1 |
| 20260510012001 | 62 | 220 | 0.9 | 6.1 | 0.00 | 0.00 | 0.12 | 63 | 1008.7 |
| 20260510011500 | 62 | 213 | 0.9 | 4.3 | 0.00 | 0.00 | 0.12 | 62 | 1008.6 |
| 20260510011001 | 62 | 170 | 1.7 | 5.2 | 0.00 | 0.00 | 0.12 | 61 | 1008.8 |
| 20260510010501 | 62 | 182 | 1.7 | 9.6 | 0.00 | 0.00 | 0.12 | 61 | 1008.6 |
| 20260510010000 | 62 | 289 | 0.0 | 5.2 | 0.00 | 0.00 | 0.12 | 62 | 1008.6 |
| 20260510005501 | 62 | 233 | 3.5 | 3.5 | 0.00 | 0.00 | 0.12 | 62 | 1008.7 |
| 20260510005000 | 62 | 196 | 1.7 | 11.3 | 0.00 | 0.00 | 0.12 | 62 | 1008.7 |
| 20260510004501 | 62 | 193 | 0.0 | 7.8 | 0.00 | 0.00 | 0.12 | 62 | 1008.6 |
| 20260510004001 | 62 | 211 | 4.3 | 4.3 | 0.00 | 0.00 | 0.12 | 63 | 1008.6 |
| 20260510003501 | 62 | 244 | 2.6 | 6.1 | 0.00 | 0.00 | 0.12 | 62 | 1008.7 |
| 20260510003001 | 62 | 155 | 1.7 | 7.0 | 0.00 | 0.00 | 0.12 | 61 | 1008.7 |
| 20260510002500 | 62 | 212 | 0.0 | 3.5 | 0.00 | 0.00 | 0.12 | 63 | 1008.5 |
| 20260510002001 | 63 | 101 | 0.9 | 9.6 | 0.00 | 0.00 | 0.12 | 61 | 1008.4 |
| 20260510001505 | 63 | 240 | 2.6 | 6.1 | 0.00 | 0.00 | 0.12 | 61 | 1008.3 |
| 20260510001001 | 63 | 238 | 4.3 | 7.0 | 0.00 | 0.00 | 0.12 | 62 | 1008.3 |
| 20260510000501 | 63 | 211 | 1.7 | 4.3 | 0.00 | 0.00 | 0.12 | 62 | 1008.2 |
| 20260510000000 | 64 | 199 | 1.7 | 8.7 | 0.00 | 0.00 | 0.12 | 60 | 1008.4 |
| 20260509235501 | 64 | 211 | 2.6 | 5.2 | 0.00 | 0.00 | 0.12 | 59 | 1008.3 |
| 20260509235005 | 64 | 127 | 5.2 | 7.0 | 0.00 | 0.00 | 0.12 | 59 | 1008.0 |
| 20260509234506 | 64 | 193 | 0.0 | 2.6 | 0.00 | 0.00 | 0.12 | 61 | 1007.9 |
| 20260509234001 | 64 | 214 | 2.6 | 11.3 | 0.00 | 0.00 | 0.12 | 59 | 1007.9 |
| 20260509233500 | 64 | 227 | 8.7 | 10.4 | 0.00 | 0.00 | 0.12 | 58 | 1008.1 |
| 20260509233001 | 66 | 221 | 3.5 | 12.2 | 0.00 | 0.00 | 0.12 | 57 | 1008.1 |
| 20260509232501 | 66 | 234 | 6.1 | 10.4 | 0.00 | 0.00 | 0.12 | 56 | 1008.1 |
| 20260509232001 | 66 | 165 | 1.7 | 5.2 | 0.00 | 0.00 | 0.12 | 57 | 1008.0 |
| 20260509231500 | 66 | 204 | 2.6 | 12.2 | 0.00 | 0.00 | 0.12 | 56 | 1008.0 |
| 20260509231000 | 66 | 195 | 1.7 | 13.9 | 0.00 | 0.00 | 0.12 | 58 | 1007.8 |
| 20260509230501 | 66 | 221 | 2.6 | 4.3 | 0.00 | 0.00 | 0.12 | 55 | 1007.9 |
| 20260509230001 | 67 | 167 | 1.7 | 13.0 | 0.00 | 0.00 | 0.12 | 55 | 1008.1 |
| 20260509225500 | 66 | 209 | 2.6 | 8.7 | 0.00 | 0.00 | 0.12 | 55 | 1007.9 |
| 20260509225001 | 67 | 261 | 2.6 | 9.6 | 0.00 | 0.00 | 0.12 | 54 | 1007.6 |
| 20260509224500 | 67 | 227 | 6.1 | 10.4 | 0.00 | 0.00 | 0.12 | 54 | 1007.5 |
| 20260509224006 | 67 | 227 | 4.3 | 9.6 | 0.00 | 0.00 | 0.12 | 55 | 1007.4 |
| 20260509223501 | 67 | 230 | 4.3 | 7.0 | 0.00 | 0.00 | 0.12 | 56 | 1007.4 |
| 20260509223001 | 67 | 243 | 7.0 | 9.6 | 0.00 | 0.00 | 0.12 | 56 | 1007.7 |
| 20260509222500 | 67 | 214 | 8.7 | 17.4 | 0.00 | 0.00 | 0.12 | 55 | 1007.7 |
| 20260509222001 | 67 | 166 | 4.3 | 15.6 | 0.00 | 0.00 | 0.12 | 55 | 1007.7 |
| 20260509221501 | 67 | 177 | 1.7 | 4.3 | 0.00 | 0.00 | 0.12 | 55 | 1007.6 |
| 20260509221001 | 66 | 228 | 6.1 | 13.0 | 0.00 | 0.00 | 0.12 | 54 | 1007.7 |
| 20260509220506 | 67 | 233 | 7.8 | 16.5 | 0.00 | 0.00 | 0.12 | 55 | 1007.7 |
| 20260509220000 | 67 | 237 | 5.2 | 8.7 | 0.00 | 0.00 | 0.12 | 55 | 1007.9 |
| 20260509215500 | 67 | 235 | 3.5 | 7.8 | 0.00 | 0.00 | 0.12 | 57 | 1007.9 |
| 20260509215001 | 67 | 145 | 3.5 | 8.7 | 0.00 | 0.00 | 0.12 | 56 | 1007.9 |
| 20260509214510 | 67 | 195 | 3.5 | 8.7 | 0.00 | 0.00 | 0.12 | 54 | 1007.9 |
| 20260509214001 | 67 | 185 | 1.7 | 9.6 | 0.00 | 0.00 | 0.12 | 54 | 1008.2 |
| 20260509213506 | 67 | 261 | 6.1 | 10.4 | 0.00 | 0.00 | 0.12 | 54 | 1008.2 |
| 20260509213006 | 65 | 204 | 5.2 | 9.6 | 0.00 | 0.00 | 0.12 | 56 | 1008.0 |
| 20260509212501 | 66 | 224 | 4.3 | 12.2 | 0.00 | 0.00 | 0.12 | 56 | 1007.9 |
| 20260509212000 | 66 | 211 | 1.7 | 8.7 | 0.00 | 0.00 | 0.12 | 58 | 1007.9 |
| 20260509211501 | 67 | 218 | 3.5 | 4.3 | 0.00 | 0.00 | 0.12 | 61 | 1008.1 |
| 20260509211000 | 65 | 237 | 7.8 | 12.2 | 0.00 | 0.00 | 0.12 | 59 | 1008.2 |
| 20260509210501 | 66 | 236 | 3.5 | 5.2 | 0.00 | 0.00 | 0.12 | 57 | 1008.4 |
| 20260509210000 | 65 | 242 | 4.3 | 11.3 | 0.00 | 0.00 | 0.12 | 58 | 1008.4 |
| 20260509205501 | 66 | 266 | 5.2 | 10.4 | 0.00 | 0.00 | 0.12 | 57 | 1008.4 |
| 20260509205000 | 67 | 172 | 2.6 | 11.3 | 0.00 | 0.00 | 0.12 | 56 | 1008.4 |
| 20260509204506 | 65 | 207 | 3.5 | 11.3 | 0.00 | 0.00 | 0.12 | 57 | 1008.4 |
| 20260509204001 | 66 | 212 | 4.3 | 7.0 | 0.00 | 0.00 | 0.12 | 58 | 1008.5 |
| 20260509203500 | 66 | 229 | 7.0 | 7.8 | 0.00 | 0.00 | 0.12 | 61 | 1008.4 |
| 20260509203000 | 65 | 253 | 4.3 | 10.4 | 0.00 | 0.00 | 0.12 | 59 | 1008.5 |
| 20260509202501 | 65 | 176 | 5.2 | 16.5 | 0.00 | 0.00 | 0.12 | 59 | 1008.6 |
| 20260509202000 | 64 | 297 | 7.8 | 13.0 | 0.00 | 0.00 | 0.12 | 60 | 1008.7 |
| 20260509201511 | 66 | 251 | 9.6 | 12.2 | 0.00 | 0.00 | 0.12 | 59 | 1008.8 |
| 20260509201001 | 64 | 237 | 5.2 | 9.6 | 0.00 | 0.00 | 0.12 | 60 | 1008.9 |
| 20260509200510 | 65 | 273 | 7.8 | 10.4 | 0.00 | 0.00 | 0.12 | 59 | 1008.9 |
| 20260509200001 | 64 | 224 | 8.7 | 14.8 | 0.00 | 0.00 | 0.12 | 60 | 1009.0 |
| 20260509195501 | 64 | 254 | 6.1 | 8.7 | 0.00 | 0.00 | 0.12 | 62 | 1009.0 |
| 20260509195001 | 64 | 222 | 11.3 | 12.2 | 0.00 | 0.00 | 0.12 | 61 | 1009.1 |
| 20260509194501 | 65 | 166 | 1.7 | 5.2 | 0.00 | 0.00 | 0.12 | 63 | 1009.1 |
| 20260509194001 | 63 | 272 | 4.3 | 11.3 | 0.00 | 0.00 | 0.12 | 66 | 1009.1 |
| 20260509193500 | 64 | 139 | 5.2 | 8.7 | 0.00 | 0.00 | 0.12 | 67 | 1009.0 |
| 20260509193001 | 63 | 227 | 4.3 | 11.3 | 0.00 | 0.00 | 0.12 | 67 | 1009.2 |
| 20260509192500 | 62 | 235 | 5.2 | 13.0 | 0.00 | 0.00 | 0.12 | 67 | 1009.3 |
| 20260509192001 | 62 | 218 | 7.8 | 16.5 | 0.00 | 0.00 | 0.12 | 65 | 1009.2 |
| 20260509191505 | 64 | 223 | 3.5 | 7.0 | 0.00 | 0.00 | 0.12 | 66 | 1009.3 |
| 20260509191001 | 63 | 206 | 2.6 | 13.0 | 0.00 | 0.00 | 0.12 | 66 | 1009.4 |
| 20260509190501 | 63 | 194 | 3.5 | 11.3 | 0.00 | 0.00 | 0.12 | 67 | 1009.4 |
| 20260509190001 | 64 | 216 | 3.5 | 7.0 | 0.00 | 0.00 | 0.12 | 71 | 1009.5 |
| 20260509185501 | 63 | 204 | 1.7 | 9.6 | 0.00 | 0.00 | 0.12 | 70 | 1009.7 |
| 20260509185000 | 62 | 195 | 3.5 | 11.3 | 0.00 | 0.00 | 0.12 | 67 | 1009.8 |
| 20260509184501 | 63 | 192 | 7.0 | 10.4 | 0.00 | 0.00 | 0.12 | 69 | 1009.8 |
| 20260509184006 | 62 | 213 | 2.6 | 7.0 | 0.00 | 0.00 | 0.12 | 71 | 1009.7 |
| 20260509183501 | 62 | 214 | 6.1 | 12.2 | 0.00 | 0.00 | 0.12 | 68 | 1009.5 |
| 20260509183001 | 61 | 217 | 7.0 | 9.6 | 0.00 | 0.00 | 0.12 | 72 | 1009.8 |
| 20260509182505 | 61 | 204 | 6.1 | 11.3 | 0.00 | 0.00 | 0.12 | 68 | 1009.8 |
| 20260509182001 | 62 | 256 | 3.5 | 11.3 | 0.00 | 0.00 | 0.12 | 69 | 1009.7 |
| 20260509181500 | 63 | 183 | 1.7 | 10.4 | 0.00 | 0.00 | 0.12 | 71 | 1009.8 |
| 20260509181001 | 62 | 238 | 7.0 | 13.0 | 0.00 | 0.00 | 0.12 | 69 | 1009.8 |
| 20260509180500 | 61 | 246 | 5.2 | 13.0 | 0.00 | 0.00 | 0.12 | 72 | 1009.8 |
| 20260509180001 | 60 | 233 | 5.2 | 9.6 | 0.00 | 0.00 | 0.12 | 74 | 1009.9 |
| 20260509175501 | 60 | 188 | 3.5 | 9.6 | 0.00 | 0.00 | 0.12 | 73 | 1009.8 |
| 20260509175001 | 60 | 253 | 2.6 | 3.5 | 0.00 | 0.00 | 0.12 | 77 | 1009.7 |
| 20260509174500 | 59 | 179 | 2.6 | 5.2 | 0.00 | 0.00 | 0.12 | 77 | 1009.7 |
| 20260509174001 | 59 | 210 | 2.6 | 7.8 | 0.00 | 0.00 | 0.12 | 77 | 1009.7 |
| 20260509173506 | 59 | 275 | 2.6 | 7.0 | 0.00 | 0.00 | 0.12 | 77 | 1009.8 |
| 20260509173006 | 60 | 226 | 4.3 | 4.3 | 0.00 | 0.00 | 0.12 | 77 | 1009.6 |
| 20260509172500 | 60 | 220 | 2.6 | 8.7 | 0.00 | 0.00 | 0.12 | 77 | 1009.8 |
| 20260509172006 | 59 | 233 | 4.3 | 7.8 | 0.00 | 0.00 | 0.12 | 77 | 1009.8 |
| 20260509171506 | 59 | 237 | 6.1 | 11.3 | 0.00 | 0.00 | 0.12 | 79 | 1009.8 |
| 20260509171010 | 58 | 252 | 4.3 | 5.2 | 0.00 | 0.00 | 0.12 | 80 | 1009.8 |
| 20260509170506 | 58 | 275 | 4.3 | 5.2 | 0.00 | 0.00 | 0.12 | 80 | 1009.8 |
| 20260509170001 | 58 | 244 | 2.6 | 5.2 | 0.00 | 0.00 | 0.12 | 80 | 1009.8 |
| 20260509165500 | 57 | 205 | 4.3 | 8.7 | 0.00 | 0.00 | 0.12 | 82 | 1009.5 |
| 20260509165001 | 57 | 310 | 3.5 | 8.7 | 0.00 | 0.00 | 0.12 | 82 | 1009.6 |
| 20260509164501 | 57 | 202 | 2.6 | 5.2 | 0.00 | 0.00 | 0.12 | 84 | 1009.7 |
| 20260509164006 | 57 | 224 | 2.6 | 9.6 | 0.00 | 0.00 | 0.12 | 84 | 1009.8 |
| 20260509163501 | 56 | 271 | 4.3 | 5.2 | 0.00 | 0.00 | 0.12 | 85 | 1009.7 |
| 20260509163000 | 57 | 156 | 0.9 | 6.1 | 0.00 | 0.00 | 0.12 | 86 | 1009.8 |
| 20260509162501 | 56 | 173 | 2.6 | 11.3 | 0.00 | 0.00 | 0.12 | 86 | 1009.7 |
| 20260509162001 | 56 | 178 | 1.7 | 6.1 | 0.00 | 0.00 | 0.12 | 86 | 1009.7 |
| 20260509161501 | 56 | 245 | 2.6 | 5.2 | 0.00 | 0.00 | 0.12 | 90 | 1009.6 |
| 20260509161001 | 56 | 189 | 1.7 | 3.5 | 0.00 | 0.00 | 0.12 | 91 | 1009.7 |
| 20260509160501 | 54 | 243 | 1.7 | 6.1 | 0.00 | 0.00 | 0.12 | 93 | 1009.8 |
| 20260509160011 | 54 | 247 | 1.7 | 3.5 | 0.00 | 0.00 | 0.12 | 94 | 1009.6 |
| 20260509155500 | 53 | 217 | 1.7 | 3.5 | 0.00 | 0.00 | 0.12 | 94 | 1009.7 |
| 20260509155001 | 53 | 249 | 2.6 | 5.2 | 0.00 | 0.00 | 0.12 | 94 | 1009.7 |
| 20260509154515 | 53 | 136 | 1.7 | 4.3 | 0.00 | 0.00 | 0.12 | 95 | 1009.7 |
| 20260509154000 | 53 | 206 | 0.9 | 1.7 | 0.00 | 0.00 | 0.12 | 95 | 1009.7 |
| 20260509153501 | 53 | 192 | 1.7 | 9.6 | 0.00 | 0.00 | 0.12 | 95 | 1009.7 |
| 20260509153000 | 53 | 207 | 5.2 | 9.6 | 0.00 | 0.00 | 0.12 | 95 | 1009.6 |
| 20260509152500 | 53 | 247 | 5.2 | 9.6 | 0.00 | 0.00 | 0.11 | 96 | 1009.5 |
| 20260509152001 | 53 | 196 | 0.9 | 5.2 | 0.00 | 0.00 | 0.11 | 96 | 1009.6 |
| 20260509151501 | 52 | 216 | 1.7 | 3.5 | 0.00 | 0.00 | 0.11 | 96 | 1009.7 |
| 20260509151001 | 52 | 214 | 1.7 | 7.0 | 0.00 | 0.00 | 0.11 | 96 | 1009.7 |
| 20260509150501 | 52 | 231 | 3.5 | 5.2 | 0.00 | 0.00 | 0.11 | 96 | 1009.8 |
| 20260509150001 | 52 | 221 | 2.6 | 4.3 | 0.00 | 0.00 | 0.11 | 96 | 1009.9 |
| 20260509145500 | 52 | 166 | 2.6 | 3.5 | 0.00 | 0.00 | 0.10 | 96 | 1009.8 |
| 20260509145001 | 52 | 214 | 1.7 | 5.2 | 0.00 | 0.00 | 0.10 | 96 | 1009.8 |
| 20260509144500 | 52 | 228 | 7.0 | 7.0 | 0.00 | 0.00 | 0.09 | 96 | 1009.6 |
| 20260509144001 | 52 | 197 | 0.9 | 5.2 | 0.00 | 0.00 | 0.08 | 96 | 1009.8 |
| 20260509143500 | 52 | 139 | 0.9 | 5.2 | 0.00 | 0.00 | 0.08 | 96 | 1009.6 |
| 20260509143000 | 52 | 223 | 0.9 | 6.1 | 0.00 | 0.00 | 0.08 | 96 | 1009.9 |
| 20260509142511 | 52 | 186 | 2.6 | 4.3 | 0.00 | 0.00 | 0.07 | 96 | 1009.7 |
| 20260509142001 | 52 | 215 | 3.5 | 10.4 | 0.00 | 0.00 | 0.07 | 96 | 1009.7 |
| 20260509141500 | 51 | 214 | 1.7 | 9.6 | 0.00 | 0.00 | 0.07 | 96 | 1009.8 |
| 20260509141000 | 52 | 193 | 4.3 | 5.2 | 0.00 | 0.00 | 0.07 | 96 | 1009.7 |
| 20260509140506 | 52 | 201 | 1.7 | 2.6 | 0.00 | 0.00 | 0.07 | 97 | 1009.9 |
| 20260509140000 | 51 | 219 | 6.1 | 7.8 | 0.00 | 0.00 | 0.07 | 97 | 1009.8 |
| 20260509135500 | 51 | 187 | 2.6 | 8.7 | 0.00 | 0.00 | 0.07 | 97 | 1009.8 |
| 20260509135006 | 51 | 216 | 0.9 | 1.7 | 0.00 | 0.00 | 0.07 | 97 | 1010.0 |
| 20260509134506 | 51 | 213 | 2.6 | 8.7 | 0.00 | 0.00 | 0.07 | 97 | 1010.0 |
| 20260509134001 | 51 | 169 | 0.9 | 6.1 | 0.00 | 0.00 | 0.07 | 97 | 1010.0 |
| 20260509133501 | 51 | 204 | 2.6 | 3.5 | 0.00 | 0.00 | 0.07 | 97 | 1009.9 |
| 20260509133006 | 51 | 222 | 6.1 | 6.1 | 0.00 | 0.00 | 0.07 | 97 | 1010.2 |
| 20260509132500 | 51 | 166 | 2.6 | 3.5 | 0.00 | 0.00 | 0.07 | 97 | 1010.0 |
| 20260509132001 | 51 | 174 | 0.9 | 5.2 | 0.00 | 0.00 | 0.06 | 97 | 1010.1 |
| 20260509131500 | 51 | 209 | 2.6 | 7.8 | 0.00 | 0.00 | 0.06 | 97 | 1010.0 |
| 20260509131001 | 51 | 221 | 4.3 | 6.1 | 0.00 | 0.00 | 0.06 | 96 | 1010.0 |
| 20260509130505 | 51 | 169 | 0.9 | 6.1 | 0.00 | 0.00 | 0.05 | 96 | 1010.0 |
| 20260509130001 | 50 | 206 | 2.6 | 8.7 | 0.00 | 0.00 | 0.05 | 96 | 1009.9 |
| 20260509125500 | 51 | 214 | 1.7 | 2.6 | 0.00 | 0.00 | 0.05 | 96 | 1010.1 |
| 20260509125001 | 51 | 195 | 3.5 | 7.0 | 0.00 | 0.00 | 0.04 | 96 | 1010.0 |
| 20260509124500 | 51 | 214 | 2.6 | 5.2 | 0.00 | 0.00 | 0.03 | 96 | 1009.9 |
| 20260509124001 | 51 | 182 | 0.9 | 3.5 | 0.00 | 0.00 | 0.03 | 96 | 1010.0 |
| 20260509123500 | 51 | 138 | 0.9 | 3.5 | 0.00 | 0.00 | 0.02 | 96 | 1010.2 |
| 20260509123000 | 51 | 126 | 0.9 | 5.2 | 0.00 | 0.00 | 0.02 | 96 | 1010.0 |
| 20260509122501 | 51 | 245 | 1.7 | 5.2 | 0.00 | 0.00 | 0.02 | 96 | 1009.8 |
| 20260509122000 | 50 | 190 | 1.7 | 6.1 | 0.00 | 0.00 | 0.02 | 96 | 1010.1 |
| 20260509121501 | 50 | 209 | 1.7 | 4.3 | 0.00 | 0.00 | 0.02 | 96 | 1010.1 |
| 20260509121005 | 50 | 150 | 0.0 | 1.7 | 0.00 | 0.00 | 0.02 | 96 | 1010.1 |
| 20260509120501 | 50 | 179 | 0.9 | 1.7 | 0.00 | 0.00 | 0.02 | 96 | 1010.0 |
| 20260509120000 | 50 | 152 | 1.7 | 4.3 | 0.00 | 0.00 | 0.02 | 96 | 1010.1 |
| 20260509115500 | 50 | 198 | 0.0 | 1.7 | 0.00 | 0.00 | 0.02 | 96 | 1009.9 |
| 20260509115006 | 50 | 154 | 1.7 | 3.5 | 0.00 | 0.00 | 0.02 | 96 | 1010.2 |
| 20260509114505 | 50 | 166 | 0.9 | 3.5 | 0.00 | 0.00 | 0.02 | 96 | 1010.0 |
| 20260509114001 | 50 | 210 | 1.7 | 1.7 | 0.00 | 0.00 | 0.02 | 96 | 1010.2 |
| 20260509113500 | 50 | 170 | 0.9 | 2.6 | 0.00 | 0.00 | 0.02 | 96 | 1010.2 |
| 20260509113005 | 50 | 173 | 1.7 | 4.3 | 0.00 | 0.00 | 0.02 | 96 | 1010.1 |
| 20260509112501 | 50 | 183 | 1.7 | 1.7 | 0.00 | 0.00 | 0.02 | 96 | 1009.9 |
| 20260509112005 | 50 | 224 | 0.0 | 1.7 | 0.00 | 0.00 | 0.01 | 97 | 1009.9 |
| 20260509111501 | 49 | 260 | 0.9 | 1.7 | 0.00 | 0.00 | 0.01 | 97 | 1010.0 |
| 20260509111010 | 49 | 141 | 0.9 | 2.6 | 0.00 | 0.00 | 0.01 | 97 | 1010.0 |
| 20260509110500 | 49 | 192 | 0.9 | 0.9 | 0.00 | 0.00 | 0.01 | 97 | 1009.7 |
| 20260509110001 | 49 | 147 | 1.7 | 2.6 | 0.00 | 0.00 | 0.01 | 97 | 1009.8 |
| 20260509105506 | 49 | 127 | 1.7 | 1.7 | 0.00 | 0.00 | 0.01 | 97 | 1009.7 |
| 20260509105001 | 49 | 122 | 1.7 | 1.7 | 0.00 | 0.00 | 0.01 | 97 | 1009.8 |
| 20260509104506 | 48 | 126 | 0.0 | 1.7 | 0.00 | 0.00 | 0.01 | 97 | 1009.8 |
| 20260509104005 | 48 | 103 | 1.7 | 1.7 | 0.00 | 0.00 | 0.01 | 97 | 1009.8 |
| 20260509103501 | 48 | 127 | 0.9 | 1.7 | 0.00 | 0.00 | 0.01 | 97 | 1009.8 |
| 20260509103000 | 48 | 144 | 0.0 | 1.7 | 0.00 | 0.00 | 0.01 | 97 | 1009.7 |
| 20260509102501 | 48 | 106 | 0.9 | 1.7 | 0.00 | 0.00 | 0.01 | 97 | 1009.7 |
| 20260509102000 | 48 | 125 | 0.0 | 1.7 | 0.00 | 0.00 | 0.01 | 97 | 1009.7 |
| 20260509101501 | 48 | 102 | 1.7 | 1.7 | 0.00 | 0.00 | 0.01 | 97 | 1009.8 |
| 20260509101000 | 48 | 115 | 0.9 | 1.7 | 0.00 | 0.00 | 0.01 | 97 | 1009.8 |
| 20260509100501 | 48 | 130 | 1.7 | 2.6 | 0.00 | 0.00 | 0.01 | 97 | 1009.8 |
| 20260509100000 | 48 | 145 | 0.9 | 1.7 | 0.00 | 0.00 | 0.01 | 97 | 1009.9 |
| 20260509095501 | 48 | 144 | 1.7 | 1.7 | 0.00 | 0.00 | 0.01 | 97 | 1010.0 |
| 20260509095005 | 48 | 112 | 0.0 | 2.6 | 0.00 | 0.00 | 0.01 | 97 | 1010.0 |
| 20260509094501 | 48 | 224 | 1.7 | 1.7 | 0.00 | 0.00 | 0.01 | 97 | 1010.1 |
| 20260509094000 | 48 | 138 | 1.7 | 1.7 | 0.00 | 0.00 | 0.01 | 97 | 1010.0 |
| 20260509093501 | 48 | 108 | 1.7 | 1.7 | 0.00 | 0.00 | 0.01 | 97 | 1010.0 |
| 20260509093001 | 48 | 73 | 0.9 | 3.5 | 0.00 | 0.00 | 0.01 | 97 | 1010.1 |
| 20260509092500 | 48 | 119 | 0.9 | 1.7 | 0.00 | 0.00 | 0.01 | 97 | 1010.1 |
| 20260509092001 | 48 | 89 | 0.0 | 1.7 | 0.00 | 0.00 | 0.01 | 97 | 1010.1 |
| 20260509091500 | 48 | 83 | 0.0 | 1.7 | 0.00 | 0.00 | 0.01 | 97 | 1010.4 |
| 20260509091006 | 48 | 17 | 0.0 | 1.7 | 0.00 | 0.00 | 0.01 | 97 | 1010.4 |
| 20260509090500 | 48 | 134 | 0.0 | 1.7 | 0.00 | 0.00 | 0.01 | 97 | 1010.6 |
| 20260509090001 | 48 | 65 | 0.0 | 1.7 | 0.00 | 0.00 | 0.01 | 97 | 1010.3 |
| 20260509085501 | 48 | 63 | 0.0 | 1.7 | 0.00 | 0.00 | 0.01 | 97 | 1010.6 |
| 20260509085000 | 48 | 60 | 0.0 | 1.7 | 0.00 | 0.00 | 0.01 | 97 | 1010.6 |
| 20260509084501 | 48 | 98 | 0.0 | 1.7 | 0.00 | 0.00 | 0.01 | 97 | 1010.5 |
| 20260509084000 | 48 | 72 | 0.0 | 0.9 | 0.00 | 0.00 | 0.01 | 97 | 1010.6 |
| 20260509083501 | 48 | 135 | 0.0 | 1.7 | 0.00 | 0.00 | 0.01 | 97 | 1010.4 |
| 20260509083000 | 48 | 66 | 0.0 | 0.9 | 0.00 | 0.00 | 0.01 | 96 | 1010.6 |
| 20260509082500 | 48 | 9 | 0.9 | 1.7 | 0.00 | 0.00 | 0.01 | 96 | 1010.5 |
| 20260509082001 | 48 | 66 | 0.9 | 1.7 | 0.00 | 0.00 | 0.01 | 96 | 1010.4 |
| 20260509081500 | 48 | 349 | 0.9 | 1.7 | 0.00 | 0.00 | 0.01 | 96 | 1010.6 |
| 20260509081001 | 48 | 72 | 0.0 | 0.9 | 0.00 | 0.00 | 0.01 | 96 | 1010.5 |
| 20260509080501 | 48 | 211 | 0.0 | 0.9 | 0.00 | 0.00 | 0.01 | 96 | 1010.7 |
| 20260509080006 | 48 | 125 | 0.0 | 0.0 | 0.00 | 0.00 | 0.01 | 96 | 1010.5 |
| 20260509075500 | 48 | 116 | 0.0 | 1.7 | 0.00 | 0.00 | 0.01 | 96 | 1010.5 |
| 20260509075001 | 48 | 325 | 0.0 | 1.7 | 0.00 | 0.00 | 0.00 | 96 | 1010.5 |
| 20260509074506 | 48 | 52 | 1.7 | 2.6 | 0.00 | 0.00 | 0.00 | 96 | 1010.5 |
| 20260509074001 | 48 | 98 | 1.7 | 1.7 | 0.00 | 0.00 | 0.00 | 96 | 1010.6 |
| 20260509073500 | 48 | 117 | 1.7 | 1.7 | 0.00 | 0.00 | 0.00 | 96 | 1010.5 |
| 20260509073006 | 48 | 112 | 0.9 | 2.6 | 0.00 | 0.00 | 0.00 | 96 | 1010.5 |